Showing default

YAOGAN-43 02E, 60949

Orbit data source: Space-Track

YAOGAN-43 02E, 60949 is a payload satellite owned by PLA GAD (CN) in LEO that was launched on Tue, 03 Sep 2024 UTC via a CHANG ZHENG 4B launch vehicle from the Xichang Space Center, China (XSC). Payload-class satellites include a variety of spacecraft equipped with specific instruments for various scientific and technological missions. These include communications satellites like Starlink; space stations such as the ISS; scientific satellites like the Hubble; Earth observation satellites from companies like Planet Labs, Umbra, and HawkEye 360; GPS; miniature CubeSats for education and research; and military/defense satellites.

Loading next visibility...
Identifier
60949, 2024-156E
Orbit
LEO
Country
Flag of CNCN / PRC
Related business
Manufacturer
SAST
Mission
Operational Defense Communications
Bus & Motor
Unknown
Mass
~300 kg wet, ~300 kg dry
Launch date (UTC)
2024-09-03 (2 years ago)
Launch vehicle
CHANG ZHENG 4B
Launch site
Xichang Space Center, China (XSC)
Object type
Payload
Rocket body
Debris
Shape & HBR
Box + 2 Pan, 2.5 m
Radar Cross Section
11.063 m², Large (>1 m²)

Expand to show TLE details & history
Last TLE update: 16 hours ago

TLE from 16 hours ago
0 YAOGAN-43 02E
1 60949U 24156E   26126.36606984  .00010214  00000-0  42170-3 0  9990
2 60949  34.9952 101.1794 0002856 264.9040  95.1349 15.23256048 93066
Epoch: 2026-05-06T08:47Z
TLE epoch observation values (Epoch: 2026-05-06T08:47:08.434Z)
Latitude
0.00001°
Longitude
105.16668°
Altitude
495.11 km
Speed
7.619 km/s
True Right ascension
06h 44m 43s
True Declination
0° 00' 00"
Sunlit
Object was in daylight at epoch
Visualization orbit readout
Latitude
Unknown
Longitude
Unknown
Altitude
Unknown
Speed
Unknown
Apparent Right ascension
Unknown
Apparent Declination
Unknown
Sunlit
N/A
Visualization observer readout
Local Sidereal Time
09:10:01
Azimuth
Unknown
Elevation
Unknown
Doppler factor
Unknown
Orbital elements
Apogee altitude
501.243 km
Perigee altitude
497.314 km
Semi-major axis
6,877.415 km
Eccentricity
0.00029
Inclination
34.9952°
RAAN
101.1794°
Arg. of periapsis
264.904°
True anomaly
95.16749°
Mean anomaly
95.1349°
Eccentric anomaly
95.1512°
Mean motion
3.80544 °/min
Orbital period
94.6 mins
BSTAR
0.0004217
Loading maneuver chart data...
Computing Atmospheric mass density...
Loading historical data...
Loading historical data...
Loading historical data...
Loading historical data...
Loading historical data...
Loading historical data...
Loading historical data...

Documentation

Showing up to 5 results
|